星链-34480 (STARLINK-34480)

导读

STARLINK-34480是美国SpaceX公司星链星座的成员卫星,于2025年6月17日发射升空。作为星链互联网星座的补充卫星,它运行在近地轨道,依托星链星座的全球网络布局,为偏远、基础设施匮乏区域提供高速低延迟宽带服务,助力实现全球无缝网络覆盖,进一步扩张星链星座的服务能力与覆盖规模。

Basic Information
目录编号:
64427
目录名称:
STARLINK-34480
国际标识:
2025-129R
轨道中心:
EARTH
卫星名称:
星链-34480
卫星全名:
星链-34480 (STARLINK-34480)
卫星状态:
在轨 (已飞行361 天)
发射日期:
2025-06-17 UTC
国别 :
美国 (US)
星等 :
--
Orbit Information
数据来源 国际轨道数据 AOE轨道数据
星历时间 2026-06-13T20:23:14+0800
10小时前
查看轨道信息
2026-06-14T00:00:00+0800
7小时前
查看轨道信息
半长轴 6950.173km 6950.146km
偏心率 0.0003906 0.0002801
轨道倾角 70.000° 69.993°
近地点辐角 270.099° 287.701°
升交点赤经 192.737° 192.358°
平近点角 89.973° 164.158°
近地点 569.321km 570.062km
远地点 574.751km 573.956km
周期 96.107分钟 96.106分钟
每日圈数 14.983367 14.983452
Detailed Information
固有亮度:
5
最大亮度:
2.5
卫星平台:
Starlink V1.0
覆盖范围:
全球
运营商:
太空探索技术公司
运营商所在国:
美国
制造商(研发单位):
太空探索技术公司
制造商所在国:
美国
使用方式:
暂无
Satellite Introduction
Starlink 计划是 SpaceX 推出的全球卫星互联网项目,通过发射低轨道卫星,为全球尤其是偏远地区提供高速、低延迟的互联网服务。自 2019 年起,Starlink 已部署数千颗卫星,旨在缩小全球数字鸿沟,推动互联网普及。该项目还为军事、航空等行业提供通信支持,带来广泛经济效益。
2D Orbit Map
3D Orbit Map
Orbit Altitude Analysis Chart
Orbit Inclination Analysis Chart
Orbit Comprehensive Analysis Chart
View Comprehensive Chart